User: anonymous   Login
Location: Moena
(46.3667°N, 11.6500°E)
Time: 13:16:49
(UTC+00:00)
Language:

SL-16 R/B - Orbit

View from above orbital plane
View from above orbital plane
View from above satellite
View from above satellite

Ground track
Ground track

The orbit data is extracted from the following two-line orbital elements,

1 31793U 07029B   21126.90151670 -.00000198  00000-0 -78505-4 0  9991
2 31793  70.9757 286.9071 0002261 263.5846 205.4217 14.14449020715393
Epoch (UTC): 06 May 2021 21:38:11
Eccentricity: 0.0002261
inclination: 70.9757°
perigee height: 842 km
apogee height: 846 km
right ascension of ascending node: 286.9071°
argument of perigee: 263.5846°
revolutions per day: 14.14449020
mean anomaly at epoch: 205.4217°
orbit number at epoch: 71539

The dashed part of the orbit path shows where the satellite is in the earth's shadow,  

DLR